sat.trackr.live / text

‹ back to catalog

OTTER

NORAD 62623 · 2025-009Q

PAYLOAD ACTIVE UNKNOWN

§ Identity

Operator
Country
GER
Launch date
2025-01-14
Launch site
AFWTR
Launch vehicle
Mass (kg)
RCS (m²)

External: N2YO · Heavens-Above · Gunter

§ Orbital elements

Epoch: 2026-05-25T04:17:20.599296Z

Period
94.16 min
Inclination
97.4027°
Eccentricity
0.0005460
Mean motion
15.29364737 rev/d
Perigee alt
474.0 km
Apogee alt
481.5 km
Semi-major
6,855.8 km
B*
3.4645e-4
RAAN
227.4259°
Arg perigee
48.7968°
Mean anomaly
311.3742°
Rev number
7,540

§ Raw data

OTTER1 62623U 25009Q   26145.17871064  .00009798  00000+0  34645-3 0  99942 62623  97.4027 227.4259 0005460  48.7968 311.3742 15.29364737 75402

JSON: /api/v1/satellites/62623 · /tle

For live sub-satellite position, see the globe view (requires WebGL).

§ Visibility from observer

Set your observer location to see the next 7 days of passes ≥ 10°. The values pass through the URL so the page stays shareable.

No JS? Fill the form by hand. The geolocation button needs JavaScript.